Regional Weather Roundup
Issued by NWS

Home | Current Version | Previous Version | Text Only | Print | Product List | Glossary Off
Versions: 1 2 3 4 5 6 7 8 9 10 11 12 13 14 15 16 17 18 19 20 21 22 23 24 25 26 27 28 29 30 31 32 33 34 35 36 37 38 39 40 41 42 43 44 45 46 47 48 49 50

000
ASUS45 KABQ 012010
RWRNM
NEW MEXICO REGIONAL WEATHER ROUNDUP
NATIONAL WEATHER SERVICE ALBUQUERQUE NM
200 PM MDT SAT AUG 01 2015

NOTE: "FAIR" MEANS FEW OR NO CLOUDS BELOW 12,000 FEET AGL WITH NO
       SIGNIFICANT WEATHER OR OBSTRUCTIONS TO VISION.

      THIS PRODUCT IS RELEASED AS TWO VERSIONS.  ONE VERSION NEAR
      THE TOP OF THE HOUR CONTAINING PRELIMINARY DATA FROM ALBUQUERQUE
      AND OTHER STATIONS.  A FINAL VERSION WITH ADDITIONAL DATA IS
      ISSUED ABOUT 10 MINUTES AFTER THE HOUR.

NMZ501-503-504-510>518-012100-
NORTHWEST PLATEAU/NORTHCENTRAL MOUNTAINS

CITY           SKY/WX    TMP DP  RH WIND       PRES   REMARKS
FARMINGTON     SUNNY     81  55  40 VRB3      30.20F
LOS ALAMOS     PTSUNNY   67  57  70 W13       30.36R
SANTA FE       MOSUNNY   81  53  37 SW12G18   30.25F
TAOS           PTSUNNY  N/A N/A N/A W12       30.31F
ANGEL FIRE     FAIR      67  47  49 W12       30.41S

$$
NMZ402-403-502-505>509-012100-
WESTCENTRAL MOUNTAINS/SOUTHWEST MOUNTAINS

CITY           SKY/WX    TMP DP  RH WIND       PRES   REMARKS
GALLUP         PTSUNNY   80  51  36 SW12      30.26F
GRANTS         MOSUNNY   79  53  41 E3        30.29F
SILVER CITY      N/A     86  50  28 SE12G20   30.22F

$$
NMZ407-409-411-412-012100-
SOUTHERN DESERTS

CITY           SKY/WX    TMP DP  RH WIND       PRES   REMARKS
LORDSBURG      FAIR      90  55  31 S10       30.10F
DEMING         SUNNY     89  55  31 CALM      30.12F
LAS CRUCES     SUNNY     89  53  29 S6        30.15F
HOLLOMAN AFB   MOSUNNY   93  54  26 W10G20    30.08F
ALAMOGORDO     MOSUNNY   93  50  22 S10       30.11F
T OR C         SUNNY     87  54  32 S8G16     30.16F

$$
NMZ519>523-012100-
CENTRAL VALLEYS/CENTRAL HIGHLANDS

CITY           SKY/WX    TMP DP  RH WIND       PRES   REMARKS
ALBUQUERQUE    MOSUNNY   85  53  33 VRB5      30.20F
DOUBLE EAGLE   MOSUNNY   84  55  37 SW6       30.24F
MORIARTY ARPT    N/A     80  56  43 CALM      30.27F
CLINES CORNERS SUNNY     77  56  48 W13G20    30.31F
BELEN          FAIR      88  51  28 SW13G18   30.19F
SOCORRO        FAIR      84  57  38 SE7       30.17F

$$
NMZ524>526-539-540-012100-
SOUTHCENTRAL MOUNTAINS

CITY           SKY/WX    TMP DP  RH WIND       PRES   REMARKS
RUIDOSO          N/A    N/A N/A N/A MISG        N/A

$$
NMZ527>531-012100-
NORTHEAST HIGHLANDS/NORTHEAST PLAINS

CITY           SKY/WX    TMP DP  RH WIND       PRES   REMARKS
LAS VEGAS      PTSUNNY   69  57  65 NW14      30.30S
RATON          MOSUNNY   82  50  32 SE7       30.21F
CLAYTON        MOSUNNY   85  63  47 S10       30.13F

$$
NMZ532>537-012100-
EASTCENTRAL PLAINS

CITY           SKY/WX    TMP DP  RH WIND       PRES   REMARKS
TUCUMCARI      SUNNY     88  64  44 SW10      30.09F
CANNON AFB     MOSUNNY   85  65  51 SW8       30.14F
CLOVIS AIRPORT MOSUNNY   84  64  51 S9G16     30.16F

$$
NMZ028-029-538-012100-
SOUTHEAST PLAINS

CITY           SKY/WX    TMP DP  RH WIND       PRES   REMARKS
ROSWELL        SUNNY     95  57  27 VRB3      30.07F
ARTESIA        SUNNY     95  59  30 SE12G18   30.08F
CARLSBAD       MOSUNNY   97  56  25 SE12G18   30.05F HX  95
HOBBS          MOSUNNY   93  54  26 SE12G17   30.10F


$$



USA.gov is the U.S. government's official web portal to all federal, state and local government web resources and services.